Temp
13 11 10 11 13 14 14 15 13 12 13 14 12 13 13 15 15 16 17 18 18 18 17 17 17 16 16 15 15 15 15 14 14 14 14 14 14 13 13 12 12 12 11 11
10 10 11 13 13 14 15 15 11 11 13 14 13 12 12 14 15 16 17 17 18 16 16 16 16 16 15 15 15 15 15 14 14 14 14 14 14 13 12 12 11 11 10 10
10 12 12 13 13 14 14 13 13 12 12 12 12 11 12 13 15 16 17 17 17 17 16 16 16 16 15 15 14 14 14 13 13 13 13 13 13 12 11 11 10 10 9 9
12 12 12 12 13 13 13 13 11 11 12 12 12 11 12 15 14 13 15 16 17 16 15 16 15 15 15 14 13 13 13 13 12 12 12 12 12 12 11 10 10 9 9 10
9 11 11 11 12 13 13 11 11 11 10 10 11 10 10 13 13 13 13 14 15 14 14 14 14 13 13 13 12 12 12 12 12 12 12 12 12 11 11 10 10 10 10 10
8 10 10 11 10 11 10 10 9 8 8 6 9 10 9 11 13 12 11 12 13 13 13 14 12 12 12 12 11 11 11 11 11 11 12 11 11 11 10 10 10 10 10 10
7 7 9 10 10 10 10 9 4 5 4 7 8 9 10 12 12 10 9 12 13 12 12 12 11 10 11 11 11 10 11 10 11 11 11 11 11 10 10 10 10 10 9 9
5 4 8 9 9 9 9 10 7 9 7 8 7 8 11 10 10 10 11 11 11 11 10 9 9 9 9 10 10 10 10 10 10 10 10 11 10 10 10 10 10 9 9 9
6 6 8 8 9 10 9 8 9 7 1 5 6 9 11 9 8 9 9 9 10 9 8 8 8 8 8 8 8 9 9 9 10 10 10 10 10 10 10 9 9 9 8 8
8 6 8 8 9 10 9 9 7 3 4 6 7 10 10 8 8 7 7 8 9 8 8 8 8 8 7 7 8 8 9 9 9 9 10 10 10 9 9 8 8 8 8 8
8 7 6 8 7 7 8 8 9 7 5 7 7 8 9 9 8 7 8 9 9 8 9 8 7 7 7 7 8 8 9 9 9 9 10 9 9 9 8 8 8 7 7 7
9 7 6 7 7 8 8 8 8 5 7 4 6 7 10 9 8 9 9 10 9 9 9 8 8 7 7 8 8 8 8 9 9 9 9 9 9 9 8 8 8 8 8 8
8 5 5 7 5 7 7 9 9 8 6 7 6 8 9 9 9 10 10 10 10 9 8 8 7 7 8 8 8 8 9 9 9 9 9 9 9 9 8 8 8 8 8 7
9 7 6 6 6 6 6 8 8 8 2 6 6 9 9 8 8 9 10 10 10 9 9 9 9 8 9 9 9 9 9 9 9 9 9 9 9 8 8 8 8 8 7 7
8 4 8 7 7 7 7 7 8 7 8 7 8 9 9 8 8 10 11 10 10 9 9 9 9 9 9 9 9 9 10 10 10 10 9 9 8 8 8 8 8 7 7 6
8 4 6 2 6 7 7 7 8 8 8 8 8 8 9 13 11 11 11 11 10 10 10 10 9 10 10 10 10 10 11 10 10 10 10 9 8 8 8 8 7 7 6 6
6 3 1 1 4 6 5 4 6 7 9 9 8 10 10 9 10 11 11 11 11 12 11 10 10 10 10 11 11 11 11 11 10 10 9 8 8 8 8 8 7 6 6 5
5 3 1 2 -0 4 8 6 8 8 8 8 9 9 10 11 12 13 13 13 12 12 12 11 11 10 10 11 11 11 10 10 10 9 9 8 8 8 7 7 6 6 5 4
5 3 3 3 0 4 6 6 6 6 8 8 8 9 10 11 11 11 12 12 13 13 12 12 11 11 10 10 10 10 10 9 9 9 9 8 8 8 7 7 6 5 4 3
5 5 4 2 1 2 5 7 7 8 7 7 8 8 9 9 8 10 12 12 12 12 12 11 11 10 10 10 10 10 10 10 10 9 9 8 8 7 7 6 5 4 4 3
5 4 4 4 -1 1 4 6 7 5 8 9 8 9 8 7 10 11 11 11 11 11 11 11 10 10 10 10 10 10 9 9 10 9 8 8 7 7 6 5 5 4 3 2
5 6 5 0 -0 4 5 5 6 7 8 9 9 9 9 9 9 10 10 10 10 10 10 10 10 10 9 9 9 9 9 9 9 8 7 7 7 6 5 5 4 3 3 2
4 4 3 4 4 5 6 8 9 8 8 8 9 8 8 8 8 9 9 10 10 10 10 9 9 9 9 9 9 9 9 9 8 7 7 6 6 5 4 4 3 3 2 2
4 3 2 3 2 4 8 8 9 8 8 8 9 8 8 8 8 9 9 9 10 10 9 9 9 9 9 9 9 9 9 7 7 6 6 5 5 4 4 3 3 3 2 1
1 1 -1 -0 -0 3 7 10 9 7 8 8 8 8 8 9 9 9 9 9 9 9 9 9 9 9 8 8 8 8 8 7 6 5 5 5 4 4 3 3 3 2 1 -0
1 -0 2 3 6 8 8 10 10 7 7 8 8 8 8 8 8 8 8 8 8 8 8 7 7 7 7 7 7 6 6 6 5 5 5 4 4 3 3 2 2 1 0 -1
Height
1495 1502 1507 1505 1507 1506 1510 1512 1521 1528 1525 1526 1529 1529 1525 1526 1527 1527 1528 1529 1531 1533 1535 1537 1539 1541 1544 1547 1550 1552 1555 1557 1558 1559 1560 1561 1562 1563 1563 1563 1562 1561 1560 1559
1497 1503 1499 1498 1502 1507 1509 1511 1526 1529 1526 1526 1528 1529 1525 1521 1519 1520 1522 1524 1527 1530 1531 1532 1536 1539 1541 1544 1546 1549 1551 1554 1555 1556 1556 1558 1559 1559 1560 1560 1559 1559 1558 1558
1495 1493 1494 1499 1503 1509 1512 1515 1520 1526 1526 1527 1529 1532 1522 1512 1513 1515 1517 1520 1524 1525 1527 1529 1532 1536 1538 1541 1543 1545 1548 1550 1552 1553 1554 1555 1556 1557 1558 1557 1558 1558 1558 1558
1493 1491 1493 1499 1504 1505 1515 1510 1517 1523 1529 1537 1529 1542 1521 1508 1509 1509 1512 1515 1519 1522 1524 1526 1528 1531 1534 1537 1540 1542 1544 1547 1548 1550 1552 1552 1553 1555 1556 1556 1557 1557 1557 1557
1497 1494 1496 1500 1502 1503 1511 1511 1519 1523 1531 1536 1536 1542 1524 1510 1511 1509 1509 1512 1514 1516 1519 1522 1525 1527 1530 1533 1537 1539 1541 1544 1546 1548 1549 1550 1552 1553 1553 1554 1556 1556 1556 1555
1499 1497 1498 1500 1502 1504 1510 1517 1526 1532 1541 1561 1537 1535 1527 1514 1505 1506 1509 1511 1513 1515 1518 1520 1522 1525 1527 1530 1533 1536 1538 1541 1543 1545 1546 1548 1549 1550 1551 1552 1554 1555 1554 1554
1503 1505 1501 1500 1506 1509 1512 1523 1563 1566 1573 1547 1535 1536 1515 1504 1501 1502 1506 1509 1512 1513 1515 1518 1519 1522 1525 1528 1530 1533 1536 1538 1540 1542 1544 1545 1547 1549 1550 1551 1552 1553 1553 1552
1514 1525 1504 1501 1505 1510 1514 1516 1535 1537 1547 1537 1535 1531 1509 1500 1502 1503 1506 1508 1510 1512 1513 1516 1519 1521 1523 1525 1528 1531 1533 1536 1538 1539 1541 1543 1545 1547 1549 1549 1550 1551 1552 1551
1506 1511 1503 1502 1504 1506 1514 1520 1518 1534 1559 1547 1534 1517 1504 1505 1504 1504 1505 1506 1507 1509 1511 1513 1517 1519 1521 1522 1525 1529 1531 1534 1536 1538 1540 1542 1544 1546 1548 1549 1550 1550 1550 1549
1490 1509 1505 1504 1504 1506 1507 1511 1530 1543 1560 1550 1528 1515 1509 1506 1504 1503 1503 1504 1505 1507 1509 1512 1513 1516 1518 1521 1524 1527 1530 1533 1535 1537 1539 1542 1544 1545 1547 1548 1548 1548 1547 1547
1482 1494 1509 1505 1504 1506 1509 1512 1513 1521 1530 1529 1531 1517 1496 1495 1497 1497 1498 1500 1503 1505 1507 1509 1511 1514 1517 1519 1522 1525 1528 1531 1534 1536 1539 1541 1543 1544 1545 1545 1545 1545 1545 1545
1477 1490 1502 1501 1500 1500 1502 1506 1507 1526 1521 1532 1526 1516 1491 1490 1492 1493 1495 1498 1501 1503 1505 1508 1510 1512 1514 1517 1520 1522 1525 1529 1532 1535 1537 1539 1541 1542 1542 1542 1542 1543 1542 1542
1474 1490 1501 1505 1510 1502 1503 1502 1502 1507 1514 1513 1522 1511 1492 1492 1494 1495 1494 1496 1498 1501 1503 1506 1509 1510 1512 1515 1517 1520 1524 1527 1531 1533 1535 1537 1538 1538 1538 1539 1540 1540 1540 1539
1471 1480 1486 1491 1492 1493 1503 1498 1500 1503 1529 1510 1509 1499 1494 1493 1493 1492 1493 1494 1496 1499 1501 1503 1506 1508 1510 1513 1516 1519 1522 1526 1529 1531 1532 1533 1534 1535 1536 1536 1537 1536 1537 1537
1473 1486 1476 1480 1480 1484 1486 1487 1491 1494 1495 1500 1496 1494 1487 1488 1485 1485 1488 1491 1492 1494 1496 1499 1502 1505 1507 1510 1514 1517 1521 1524 1527 1527 1528 1529 1530 1532 1532 1533 1533 1534 1535 1534
1471 1484 1481 1499 1485 1483 1483 1485 1484 1485 1488 1490 1489 1486 1480 1479 1480 1482 1482 1484 1486 1489 1491 1495 1498 1501 1503 1506 1510 1514 1518 1520 1522 1523 1525 1526 1527 1528 1528 1529 1530 1531 1530 1529
1473 1482 1495 1506 1493 1489 1492 1485 1481 1480 1478 1480 1482 1473 1473 1475 1474 1477 1479 1479 1480 1483 1486 1489 1493 1496 1499 1503 1507 1511 1514 1517 1518 1519 1520 1521 1522 1523 1524 1525 1525 1526 1526 1525
1472 1479 1489 1497 1505 1503 1468 1465 1464 1468 1469 1470 1466 1465 1464 1464 1466 1470 1473 1474 1477 1479 1481 1485 1489 1493 1497 1501 1505 1508 1511 1512 1513 1514 1515 1516 1518 1519 1520 1521 1522 1523 1522 1521
1469 1475 1487 1492 1506 1481 1466 1465 1466 1466 1461 1458 1459 1456 1456 1461 1464 1464 1466 1469 1472 1474 1477 1481 1484 1488 1493 1497 1501 1504 1505 1506 1507 1508 1509 1510 1512 1513 1515 1516 1517 1517 1516 1516
1466 1467 1475 1487 1502 1495 1464 1454 1456 1459 1464 1444 1444 1444 1451 1458 1464 1455 1462 1465 1468 1471 1474 1477 1481 1485 1489 1493 1496 1497 1499 1500 1500 1501 1504 1506 1507 1509 1510 1511 1512 1512 1511 1510
1462 1466 1469 1477 1501 1479 1457 1456 1459 1477 1456 1441 1440 1442 1447 1451 1450 1454 1457 1460 1463 1466 1470 1474 1476 1479 1483 1487 1489 1492 1493 1493 1494 1496 1499 1500 1501 1503 1504 1505 1505 1505 1504 1502
1454 1455 1460 1484 1493 1474 1451 1457 1461 1450 1444 1443 1441 1441 1443 1446 1449 1452 1455 1457 1460 1463 1466 1469 1472 1475 1479 1483 1485 1486 1487 1489 1489 1490 1492 1493 1495 1497 1498 1499 1499 1499 1498 1497
1454 1447 1452 1453 1452 1442 1443 1444 1447 1447 1446 1445 1443 1443 1444 1446 1448 1450 1453 1457 1459 1462 1464 1466 1470 1474 1477 1478 1479 1481 1482 1482 1483 1483 1485 1486 1488 1489 1491 1491 1492 1491 1490 1489
1444 1441 1447 1445 1442 1436 1438 1440 1442 1445 1448 1446 1446 1447 1447 1448 1450 1452 1453 1456 1458 1460 1463 1465 1468 1471 1473 1474 1476 1477 1477 1476 1478 1479 1479 1480 1481 1482 1482 1483 1483 1482 1482 1480
1447 1444 1445 1446 1440 1437 1434 1433 1437 1442 1444 1447 1450 1450 1450 1450 1452 1454 1455 1457 1459 1460 1462 1462 1464 1467 1468 1469 1470 1471 1472 1472 1472 1473 1474 1474 1475 1474 1474 1474 1474 1473 1473 1473
1442 1447 1441 1436 1431 1429 1429 1431 1433 1436 1440 1445 1448 1451 1452 1452 1454 1454 1456 1457 1458 1459 1459 1461 1461 1463 1464 1464 1465 1467 1468 1468 1468 1468 1469 1468 1468 1468 1467 1466 1465 1464 1464 1464
Wind_Speed
5 4 6 9 7 4 7 5 6 1 2 4 5 4 9 13 13 13 14 16 12 15 22 24 29 29 28 28 25 22 20 18 16 14 13 11 11 10 10 11 11 11 8 5
4 4 7 8 7 4 3 4 4 3 1 2 2 8 9 10 14 23 22 20 18 12 24 26 26 25 24 24 24 22 20 18 16 15 14 12 9 10 10 9 8 4 2 1
6 4 8 6 5 7 3 5 6 6 4 1 1 6 7 9 22 20 24 22 19 18 23 25 25 25 24 22 22 22 19 17 16 15 14 12 11 10 7 4 3 1 0 2
2 4 8 6 5 6 5 4 8 9 4 3 2 5 5 3 5 8 18 22 20 18 21 24 25 25 23 20 21 21 19 17 17 16 14 12 10 7 5 5 3 1 1 3
5 3 7 5 6 6 4 10 8 5 5 3 2 0 7 2 4 6 8 11 17 14 14 18 25 23 21 19 19 19 18 18 16 15 13 10 7 6 6 5 3 1 2 4
1 1 3 1 4 6 7 11 9 6 4 1 7 7 5 4 5 4 8 13 12 9 10 15 20 23 21 18 17 18 18 16 16 14 11 9 8 7 7 5 3 1 2 4
4 4 3 2 9 5 7 6 3 3 2 5 3 3 6 4 1 6 11 13 10 8 9 15 22 23 20 17 17 18 18 17 16 14 12 10 10 9 7 5 2 0 2 4
5 1 3 2 4 7 8 6 5 8 5 4 3 7 6 2 10 13 13 12 9 8 12 16 18 18 18 16 16 18 18 16 15 14 13 12 11 9 7 4 2 1 4 5
5 2 1 3 2 7 5 3 3 6 2 3 4 5 4 2 2 6 9 10 10 10 13 15 16 17 17 17 18 18 17 16 15 15 14 13 10 8 6 2 0 2 4 6
4 5 1 1 2 1 4 7 3 3 4 3 4 3 5 7 8 7 8 12 12 12 12 12 13 13 14 16 18 17 16 15 16 15 14 12 10 6 4 2 1 2 4 6
6 4 4 4 5 7 3 3 4 4 4 5 3 5 5 8 9 10 13 14 15 14 13 13 12 12 13 16 17 17 17 17 17 16 14 10 7 4 3 3 3 3 5 7
4 5 4 4 0 1 2 5 5 4 4 2 2 5 3 4 9 15 14 15 15 14 14 13 14 16 16 17 18 18 19 19 17 14 11 8 5 4 5 5 3 5 7 10
6 2 6 3 5 2 4 4 4 3 3 5 5 5 1 4 3 7 14 15 16 16 16 15 17 17 17 18 19 20 20 19 16 12 9 8 8 8 7 4 4 6 8 11
5 4 5 8 6 7 7 10 7 7 3 4 5 3 5 7 8 11 12 15 16 17 17 18 19 18 17 18 19 20 21 18 14 12 11 11 11 9 7 6 6 8 11 14
3 4 3 2 5 5 6 13 18 16 12 7 7 10 8 9 11 18 17 16 19 20 21 22 21 19 18 19 21 21 19 15 13 14 14 13 12 10 9 8 8 10 14 16
2 1 3 2 3 1 4 14 17 20 14 12 7 7 6 4 14 14 22 22 24 23 22 22 22 20 21 22 22 20 18 15 15 15 14 14 13 12 11 9 10 13 16 17
4 5 3 4 3 3 8 8 10 9 12 13 18 20 10 8 11 16 23 26 26 23 22 23 25 25 24 23 22 19 14 13 14 16 17 17 15 14 12 12 13 13 16 18
8 5 3 3 3 5 4 1 10 16 10 17 13 6 15 20 27 27 22 27 25 22 21 20 22 26 25 23 20 17 15 14 18 20 19 18 17 16 15 14 15 16 17 18
4 4 3 5 3 5 4 5 7 8 13 17 18 19 23 20 11 13 14 23 24 20 18 17 15 26 27 26 23 20 18 17 20 24 23 21 20 20 19 17 17 17 19 19
7 3 3 4 5 8 5 2 6 5 8 9 19 17 14 13 8 9 19 20 14 17 16 15 15 21 26 26 24 24 25 23 24 25 24 23 22 22 22 19 19 19 20 21
6 4 9 5 3 7 7 5 5 5 6 2 6 16 13 8 15 8 10 13 15 15 17 16 16 21 22 27 29 29 27 28 25 23 24 25 25 25 24 21 21 21 22 23
9 6 6 3 2 8 8 6 8 3 1 1 2 2 8 10 12 13 10 9 11 12 13 15 19 24 24 23 24 25 28 24 21 23 27 28 29 28 25 22 21 22 24 24
4 5 6 8 6 6 20 9 19 2 1 1 1 3 8 14 19 17 15 9 12 11 10 9 11 15 17 19 20 20 17 18 22 25 28 30 29 26 24 24 24 25 25 26
4 2 2 4 5 6 17 27 12 12 3 3 5 7 11 14 14 12 13 13 12 10 10 11 9 8 8 10 12 14 17 20 23 26 28 28 27 26 26 26 26 28 28 29
0 1 5 5 4 2 13 20 25 17 9 6 8 9 11 13 13 12 11 10 9 9 11 13 13 13 13 15 18 19 22 24 25 26 26 26 28 28 28 29 28 29 29 29
7 5 3 5 13 11 8 22 25 18 18 13 13 9 7 8 8 9 8 9 10 10 11 12 13 14 16 18 19 20 23 23 23 25 26 28 29 29 30 30 31 32 31 30
Wind_Direction
185 115 173 181 190 147 133 140 119 56 334 132 219 258 255 240 224 218 225 225 217 197 189 195 197 199 204 207 211 219 223 217 212 213 219 227 246 262 281 295 303 305 305 300
78 188 208 182 197 134 105 123 94 58 126 125 197 266 254 241 226 224 220 221 219 204 192 196 200 205 212 218 225 229 223 217 215 216 222 237 251 273 285 296 304 309 323 1
146 187 203 177 169 142 161 163 156 144 176 126 28 282 247 254 241 236 225 229 223 216 198 203 208 217 230 234 228 223 219 215 217 220 221 225 240 258 273 275 250 196 29 344
142 297 158 143 173 138 165 153 119 124 105 219 127 277 290 217 207 205 224 225 222 216 217 219 218 217 222 225 225 219 217 214 213 215 214 224 240 247 231 220 216 221 330 343
216 160 128 127 168 129 174 120 117 105 91 82 262 332 271 161 224 212 202 182 186 194 197 212 217 214 213 221 224 219 214 210 207 209 216 225 233 223 215 205 206 256 335 350
100 30 51 102 51 113 129 81 49 48 74 300 212 173 262 208 210 154 155 156 160 180 197 208 208 209 211 213 217 218 211 204 201 206 216 220 222 210 204 202 201 212 350 358
31 2 334 82 85 35 98 84 36 9 351 227 354 192 249 243 184 153 154 157 174 194 209 204 202 201 208 215 220 214 205 200 199 202 206 206 203 199 194 189 193 307 353 358
140 290 201 146 151 166 170 162 158 196 194 216 353 223 251 178 137 133 149 173 187 195 199 197 204 210 216 222 219 206 199 198 195 196 198 194 191 185 185 190 205 332 355 359
132 18 341 96 84 154 222 178 148 104 31 70 215 278 300 130 154 165 170 180 195 199 200 204 216 224 227 217 202 198 196 194 193 191 189 185 180 183 190 195 276 353 352 344
149 115 219 31 77 83 146 158 69 349 128 247 266 264 234 211 211 204 198 204 199 197 200 208 207 206 199 193 194 194 194 195 192 186 182 180 182 186 192 199 260 307 329 329
131 114 168 109 204 173 151 188 191 133 155 170 161 254 217 222 195 196 205 203 199 201 205 199 194 191 188 190 193 195 195 194 189 183 183 184 192 197 212 231 251 295 319 326
198 122 148 179 351 170 222 197 155 137 223 225 148 272 328 153 179 185 196 195 198 203 197 194 194 192 190 192 196 198 196 192 189 188 191 200 213 237 242 250 273 310 315 317
181 132 113 143 354 356 217 220 200 124 98 204 147 250 193 151 173 183 179 186 194 196 192 194 199 200 197 198 200 200 196 194 194 200 212 226 242 246 249 252 271 293 303 305
131 155 152 178 194 150 191 206 201 181 143 168 214 212 238 232 220 211 198 196 197 199 200 201 205 204 202 203 203 201 199 201 210 222 233 241 246 245 243 244 266 286 299 305
112 168 134 33 137 139 179 188 198 209 205 188 190 211 225 213 217 217 207 200 199 203 206 209 208 206 206 205 203 201 206 213 228 237 243 246 244 240 237 246 268 290 300 300
113 216 122 357 355 102 218 210 206 215 218 236 257 252 225 253 232 219 205 194 203 210 215 215 215 214 210 206 201 201 210 224 235 245 249 243 237 232 236 251 272 285 292 293
176 144 105 233 360 43 290 205 198 211 214 212 227 234 231 257 243 220 214 205 208 210 216 216 216 211 203 198 196 200 207 222 239 246 242 240 233 233 240 250 266 280 290 293
177 118 89 141 42 252 265 209 207 211 215 221 238 210 213 224 238 247 231 219 217 224 223 223 223 214 209 205 202 202 215 235 247 249 246 240 234 237 240 255 266 277 286 289
165 131 125 146 191 301 271 222 180 169 246 228 234 241 234 227 228 242 232 229 229 226 233 233 233 221 215 215 214 216 229 251 257 253 250 242 237 237 242 256 267 274 279 286
211 143 126 145 151 213 247 225 145 117 287 222 210 231 220 181 214 239 243 245 232 220 228 231 234 226 224 220 221 229 242 252 265 254 250 242 239 239 246 260 268 275 281 282
171 174 196 161 211 287 248 187 153 105 241 319 227 223 188 191 225 227 225 217 213 219 226 224 226 228 229 231 235 244 249 256 260 250 244 238 238 240 247 257 267 275 276 275
182 165 181 128 116 257 176 123 175 242 346 37 58 153 204 212 186 169 167 189 189 197 212 224 220 226 234 239 243 251 254 257 251 241 236 237 239 243 250 261 268 273 273 273
241 195 170 178 205 197 184 193 217 316 210 134 120 153 167 161 164 163 165 179 166 189 206 208 215 225 234 240 243 246 250 248 244 242 240 240 242 247 255 264 270 271 271 270
231 144 204 91 235 198 201 213 223 221 222 139 136 142 158 154 155 161 165 170 177 174 176 174 180 193 215 238 251 257 253 251 253 253 249 246 248 255 261 266 272 274 271 269
309 279 170 272 290 279 238 226 233 218 187 176 158 137 136 145 150 158 162 174 184 202 212 209 216 228 240 248 255 262 267 265 261 259 257 257 258 261 266 272 276 278 274 270
157 246 190 227 185 209 221 231 236 224 206 193 182 169 167 174 187 186 191 197 207 218 224 240 253 256 258 261 268 273 274 272 269 267 266 265 266 267 271 275 276 275 273 267